Location: Famechon
(49.7599°N, 2.0615°E)
Time: 23:36:47
(UTC+00:00)

Cosmos 1844 - Pass Details

Date: 03 February 2023
Orbit: 822 x 868 km, 70.9° (Epoch: 01 April)

Event Time Altitude Azimuth Distance (km) Brightness Sun altitude
Rises 17:54:07 0° 332° (NNW) 3,465 7.1 -10.7°
Reaches altitude 10° 17:56:38 10° 335° (NNW) 2,524 6.3 -11.1°
Maximum altitude 18:02:25 63° 57° (ENE) 968 3.8 -12.0°
Drops below altitude 10° 18:08:07 10° 138° (SE) 2,497 5.9 -12.9°
Sets 18:10:35 0° 142° (SE) 3,425 6.6 -13.3°
